Regional Weather Roundup
Issued by NWS

Home | Current Version | Previous Version | Text Only | Print | Product List | Glossary On
Versions: 1 2 3 4 5 6 7 8 9 10 11 12 13 14 15 16 17 18 19 20 21 22 23 24 25 26 27 28 29 30 31 32 33 34 35 36 37 38 39 40 41 42 43 44 45 46 47 48 49 50
312
ASUS43 KMKX 251121
RWRWI

WISCONSIN REGIONAL WEATHER ROUNDUP
NATIONAL WEATHER SERVICE MILWAUKEE/SULLIVAN WI
600 AM CDT WED MAY 25 2016

NOTE: "FAIR" INDICATES FEW OR NO CLOUDS BELOW 12,000 FEET WITH NO
SIGNIFICANT WEATHER AND/OR OBSTRUCTIONS TO VISIBILITY.

WIZ001-002-006>008-014>016-023>028-251200-
NORTHWEST WISCONSIN

CITY           SKY/WX    TMP DP  RH WIND       PRES   REMARKS
SUPERIOR ARPT  FOG       44  44 100 NE9       30.01F VSB 1/2
ASHLAND        FOG       50  50 100 NE8       30.02F VSB<1/4
HAYWARD        PTCLDY    51  50  96 N6        29.96F
SIREN          FOG       57  56  98 NE6       29.94F VSB 3/4
CUMBERLAND     CLOUDY    57  55  94 E5        29.95R
RICE LAKE      CLOUDY    58  56  91 E3        29.96R
CHETEK         CLOUDY    60  58  95 CALM      29.95R
LADYSMITH      CLOUDY    59  57  95 E7        29.97S
EAU CLAIRE     PTCLDY    58  56  93 NE6       29.93R
MENOMONIE      MOCLDY    57  55  92 CALM      29.93R
NEW RICHMOND   MOCLDY    61  55  79 SE7       29.92R
OSCEOLA        CLOUDY    61  59  92 E3        29.94R
$$

WIZ003>005-009-010-017-018-251200-
NORTH CENTRAL WISCONSIN

CITY           SKY/WX    TMP DP  RH WIND       PRES   REMARKS
MANITOWISH WTR NOT AVBL
ARBOR VITAE    FOG       58  57  97 NE6       30.00F VSB 1/4
WOODRUFF       FOG       58  57  97 NE6       30.00F VSB 1/4
RHINELANDER    FOG       55  55 100 E10       30.02F VSB 1/4
EAGLE RIVER    FOG       58  58 100 CALM      30.02F VSB 3/4
LAND O LAKES   FOG       57  57 100 NE3       30.04F VSB 3/4
PHILLIPS       FOG       53  53 100 E5        29.98S VSB 1/4
TOMAHAWK       FOG       54  53  97 E3        30.01F VSB 1/2
MEDFORD        PTCLDY    56  56 100 E7        29.97F
MERRILL        CLOUDY    49  49 100 CALM      30.00F FOG
$$

WIZ029-030-035-036-043>047-251200-
CENTRAL WISCONSIN

CITY           SKY/WX    TMP DP  RH WIND       PRES   REMARKS
WAUSAU         CLOUDY    59  55  87 E3        29.97F
MOSINEE        CLEAR     66  57  72 E7        29.97F
MARSHFIELD     CLOUDY    60  56  86 NE6       29.96S
STEVENS POINT  CLOUDY    56  55  95 NE7       29.98S
WAUPACA        CLEAR     59  58  97 CALM      29.98S
WAUTOMA        CLEAR     53  52  96 CALM      29.97
WISC RAPIDS    CLOUDY    58  54  86 E3        29.97S
CAMP DOUGLAS   CLEAR     48  48 100 CALM      29.95R FOG
$$

WIZ011>013-019>022-031-037>040-048>050-251200-
NORTHEAST WISCONSIN

CITY           SKY/WX    TMP DP  RH WIND       PRES   REMARKS
ANTIGO         FOG       55  55 100 NE6       30.01F VSB<1/4
SHAWANO        FOG       60  58  94 E14       30.00F VSB 1
OCONTO         CLOUDY   N/A N/A N/A NE6       30.02S VSB 1
STURGEON BAY   NOT AVBL
GREEN BAY      CLOUDY    58  56  93 NE16      29.99F FOG
MANITOWOC      FOG       54  54 100 NE8       30.00S VSB 3/4
APPLETON       FOG       57  57 100 NE10      29.96F VSB 1
CLINTONVILLE   FOG       57  55  94 E8        29.99F VSB 1/2
OSHKOSH        CLOUDY    62  59  90 NE10      29.97S FOG
$$

WIZ032>034-041-042-053>061-251200-
SOUTHWEST WISCONSIN

CITY           SKY/WX    TMP DP  RH WIND       PRES   REMARKS
LA CROSSE      CLOUDY    60  57  89 E7        29.92R
SPARTA         CLOUDY    48  48  98 CALM      29.95R
VIROQUA        CLOUDY    62  58  86 E7        29.95R
BOSCOBEL       CLOUDY    60  59  96 CALM      29.94R FOG
PRAIRIE DU CHI CLOUDY    60  58  93 CALM      29.92S
PLATTEVILLE    CLEAR     64  63  94 S8        29.95R
$$

WIZ056-057-062-063-064-067-068-251200-
SOUTH CENTRAL WISCONSIN

CITY           SKY/WX    TMP DP  RH WIND       PRES   REMARKS
REEDSBURG      CLEAR     55  55 100 CALM      29.95R FOG
BARABOO/DELLS  CLEAR     58  56  91 CALM      29.95S
LONE ROCK      CLEAR     58  56  93 W3        29.95R FOG
MINERAL POINT  PTCLDY    64  61  88 SE3       29.96R
MADISON        MOCLDY    60  58  92 CALM      29.95R
MIDDLETON      MOCLDY    60  60 100 CALM      29.96R
WATERTOWN      CLOUDY    61  61 100 CALM      29.95R
MONROE         PTCLDY    61  59  94 S7        29.96R
JANESVILLE     CLEAR     63  61  94 SE3       29.95R
$$

WIZ051-052-058>065-066-070>072-251200-
SOUTHEAST WISCONSIN

CITY           SKY/WX    TMP DP  RH WIND       PRES   REMARKS
MILWAUKEE      MOCLDY    63  58  83 NE3       29.95F
WAUKESHA       PTCLDY    57  57 100 NE3       29.96F
MILWAUKEE/TIMM CLEAR     61  57  88 CALM      29.96F
RACINE         CLEAR     64  59  83 CALM      29.97S
BURLINGTON     CLEAR     58  57  96 CALM      29.96R
KENOSHA        CLEAR     66  60  81 S6        29.96S
FOND DU LAC    CLOUDY    56  55  97 S5        29.96F
SHEBOYGAN      CLOUDY    57  53  86 NE16      29.96F FOG
WEST BEND      PTCLDY    57  55  94 CALM      29.97S
JUNEAU         MOCLDY    60  58  94 CALM      29.97R
$$

LSZ147-162-251200-
LAKE SUPERIOR

STATION/POSITION TIME  TEMP    WIND        PRES    WAVE
                       AIR SEA DIR/SP/G            HT/PER
                 (UTC) (F)     (DEG/KT/KT) (MB)    (FT/S)
W MID LAKE BUOY  1050   40 38   50/ 10/ 10 1018.8R   1/ 4
DEVILS ISLAND    1100   44      50/ 16/ 17 1017.9R
SAXON HARBOR     1040   47      CALM  /  2 1016.6S
$$

LMZ867-665-643>646-251200-
LAKE MICHIGAN

STATION/POSITION TIME  TEMP    WIND        PRES    WAVE
                       AIR SEA DIR/SP/G            HT/PER
                 (UTC) (F)     (DEG/KT/KT) (MB)    (FT/S)
CHAMBERS ISLAND  1040   53     360/ 15/ 19 1017.3R
N MID LAKE BUOY  1050   47 44  340/  6/  8 1017.0R   1/ 4
NORTHPORT PIER   1000   51     340/ 10/ 12 1016.9R
SISTER BAY       1034   51      20/ 10/ 16   N/A
ALGOMA LAKESHORE 0947           40/  9/ 14   N/A
KEWAUNEE LAKESHO 1006   51      20/ 10/ 14 1015.4S
SHEBOYGAN LAKESH 1100   51     360/ 13/ 13 1015.2F
PORT WASHINGTON  1040   56      30/  4/  4 1014.9F
S MID LAKE BUOY  1050   54 49  160/  8/  8 1014.4F   1
KENOSHA   LAKESH 1100   67     200/  6/  8 1014.6S
$$

TC  - TEMPERATURE IN CELSIUS
VSB - VISIBILITY IN STATUTE MILES
WCI - WIND CHILL INDEX
HX  - HEAT INDEX





USA.gov is the U.S. government's official web portal to all federal, state and local government web resources and services.